{"data":{"norad_id":53721,"intl_designator":"2022-107X","name":"STARLINK-4707","alt_names":[],"object_type":"PAYLOAD","status":"ACTIVE","operator":null,"country":"US","launch_date":"2022-09-05","launch_site_code":"AFETR","launch_vehicle":null,"mission":null,"orbit_class":"UNKNOWN","rcs_meters":null,"size_class":null,"mass_kg":null,"dimensions":null,"purposes":["comms"],"wikipedia_slug":null,"has_3d_model":false,"image_url":null,"decayed_at":null,"tle_current":{"epoch":"2026-09-20T21:11:21.374592Z","epoch_age_seconds":48465,"freshness":"FRESH","line1":"1 53721U 22107X   26263.88288628  .00000334  00000+0  21044-4 0  9993","line2":"2 53721  53.1595  83.6967 0001196  87.5674 272.5466 15.34379355224073","mean_motion":15.34379355,"eccentricity":0.0001196,"inclination_deg":53.1595,"raan_deg":83.6967,"arg_perigee_deg":87.5674,"mean_anomaly_deg":272.5466,"bstar":2.1044e-5,"rev_number":22407,"period_min":93.84902079838,"perigee_km":461.94643035423,"apogee_km":463.58277401747,"semimajor_km":6840.9016021859,"source":"CELESTRAK","updated_at":"2026-09-21T09:00:32.985459Z"}}}